AL7BX-WX Weather Reports


Display with metric or nautical units.
time (UTC)temp
F
wind
direction
speed
MPH
gust
MPH
rain 1hr
in
rain 24hr
in
rain mn
in
humidity
%
barometer
mb
20260831234503 75 126 9.0 18.0 0.00 0.00 0.00 46
20260831233603 74 123 8.0 15.0 0.00 0.00 0.00 47
20260831232703 74 131 7.0 15.0 0.00 0.00 0.00 46
20260831232013 75 120 9.0 19.0 0.00 0.00 0.00 45
20260831230903 76 121 8.0 16.0 0.00 0.00 0.00 44
20260831230003 76 120 8.0 19.0 0.00 0.00 0.00 42
20260831225403 76 129 8.0 19.0 0.00 0.00 0.00 43
20260831224503 76 116 9.0 26.0 0.00 0.00 0.00 44
20260831223603 76 117 10.0 26.0 0.00 0.00 0.00 44
20260831222703 76 109 7.0 21.0 0.00 0.00 0.00 46
20260831221803 76 100 8.0 16.0 0.00 0.00 0.00 46
20260831220903 76 120 7.0 17.0 0.00 0.00 0.00 46
20260831220003 75 122 7.0 13.0 0.00 0.00 0.00 46
20260831215403 74 135 7.0 15.0 0.00 0.00 0.00 48
20260831214714 74 138 7.0 15.0 0.00 0.00 0.00 48
20260831213603 73 190 7.0 21.0 0.00 0.00 0.00 51
20260831212703 74 201 5.0 13.0 0.00 0.00 0.00 53
20260831211803 70 109 9.0 20.0 0.00 0.00 0.00 49
20260831210903 68 122 9.0 22.0 0.00 0.00 0.00 46
20260831210003 70 136 9.0 18.0 0.00 0.00 0.00 43
20260831205403 70 148 7.0 18.0 0.00 0.00 0.00 39
20260831204503 71 146 7.0 15.0 0.00 0.00 0.00 43
20260831203603 71 136 8.0 18.0 0.00 0.00 0.00 45
20260831202912 72 135 8.0 13.0 0.00 0.00 0.00 46